N501AP KSHV-7NC2

Flight info

Callsign N501AP
Flight time N/A
Altitude 45000
Route BERKE J20 MIXIE J29 ELD Q32 SWAPP Q34 SITTR Q108 HURTS DCT HCM DCT KW39Y
Aircraft C700/M-SBDGHM1RWXY/LB2

Departure

Time 2026-04-11 16:20
Airport Shreveport Regional Airport (KSHV)

Arrival

Time N/A
Airport Pine Island Airport (7NC2)
Time Latitude Longitude Altitude Speed Heading
2026-04-11 15:46 32.44948 -93.83689 255 ft 0 kts 143°
2026-04-11 16:15 32.44941 -93.83683 255 ft 3 kts 145°
2026-04-11 16:16 32.44942 -93.83653 254 ft 6 kts 56°
2026-04-11 16:16 32.44983 -93.83650 254 ft 7 kts 336°
2026-04-11 16:16 32.45020 -93.83679 256 ft 8 kts 322°
2026-04-11 16:16 32.45111 -93.83762 257 ft 23 kts 322°
2026-04-11 16:17 32.45183 -93.83782 258 ft 10 kts 43°
2026-04-11 16:17 32.45241 -93.83694 259 ft 16 kts 55°
2026-04-11 16:17 32.45309 -93.83587 260 ft 15 kts 51°
2026-04-11 16:17 32.45327 -93.83561 260 ft 0 kts 52°
2026-04-11 16:18 32.45336 -93.83546 260 ft 5 kts 52°
2026-04-11 16:18 32.45362 -93.83506 261 ft 7 kts 52°
2026-04-11 16:18 32.45384 -93.83470 262 ft 0 kts 70°
2026-04-11 16:19 32.45356 -93.83456 262 ft 13 kts 171°
2026-04-11 16:19 32.45317 -93.83424 261 ft 0 kts 143°
2026-04-11 16:20 32.45162 -93.83285 253 ft 74 kts 143°
2026-04-11 16:20 32.44510 -93.82702 258 ft 156 kts 143°
2026-04-11 16:20 32.43506 -93.81950 971 ft 178 kts 153°
2026-04-11 16:21 32.42388 -93.81338 2369 ft 182 kts 158°
2026-04-11 16:21 32.41315 -93.80676 4091 ft 159 kts 134°
2026-04-11 16:21 32.41006 -93.79440 5517 ft 176 kts 88°
2026-04-11 16:21 32.41349 -93.77919 6415 ft 209 kts 72°
2026-04-11 16:22 32.41985 -93.76121 6930 ft 261 kts 70°
2026-04-11 16:22 32.42358 -93.74036 8470 ft 250 kts 94°
2026-04-11 16:22 32.42146 -93.72091 10504 ft 227 kts 106°
2026-04-11 16:22 32.41417 -93.70427 11598 ft 244 kts 133°
2026-04-11 16:23 32.40163 -93.69039 11927 ft 246 kts 142°
2026-04-11 16:23 32.38803 -93.67834 12333 ft 252 kts 150°
2026-04-11 16:23 32.37128 -93.67155 12499 ft 254 kts 168°
2026-04-11 16:23 32.35453 -93.66634 12841 ft 251 kts 169°
2026-04-11 16:24 32.33599 -93.66411 13271 ft 282 kts 175°
2026-04-11 16:24 32.31690 -93.66184 14814 ft 260 kts 181°
2026-04-11 16:24 32.30005 -93.66618 16285 ft 250 kts 210°
2026-04-11 16:24 32.28600 -93.68037 16543 ft 285 kts 217°
2026-04-11 16:25 32.26625 -93.68881 16763 ft 323 kts 186°
2026-04-11 16:25 32.24512 -93.68668 18636 ft 287 kts 168°
2026-04-11 16:25 32.22767 -93.68219 20877 ft 238 kts 176°
2026-04-11 16:25 32.21065 -93.68135 21270 ft 264 kts 185°
2026-04-11 16:26 32.19140 -93.68700 20141 ft 305 kts 211°
2026-04-11 16:26 32.17674 -93.70542 19615 ft 303 kts 233°
2026-04-11 16:26 32.16334 -93.72168 20579 ft 257 kts 226°
2026-04-11 16:26 32.15178 -93.73843 20807 ft 280 kts 242°
2026-04-11 16:27 32.14756 -93.76147 20070 ft 302 kts 279°
2026-04-11 16:27 32.15285 -93.78496 19968 ft 288 kts 288°
2026-04-11 16:27 32.16205 -93.80414 20453 ft 266 kts 313°
2026-04-11 16:27 32.17969 -93.81480 19453 ft 322 kts 353°
2026-04-11 16:28 32.20082 -93.80356 17238 ft 375 kts 57°
2026-04-11 16:28 32.19803 -93.77367 15295 ft 408 kts 136°
2026-04-11 16:28 32.17440 -93.75965 16050 ft 380 kts 162°
2026-04-11 16:28 32.14855 -93.75533 17438 ft 377 kts 182°
2026-04-11 16:29 32.12237 -93.75478 18647 ft 384 kts 170°
2026-04-11 16:29 32.09684 -93.74691 20073 ft 367 kts 169°
2026-04-11 16:29 32.07247 -93.74652 21544 ft 358 kts 195°
2026-04-11 16:29 32.05082 -93.76292 20588 ft 406 kts 231°
2026-04-11 16:30 32.03026 -93.78500 21441 ft 394 kts 209°
2026-04-11 16:30 32.00435 -93.79374 23022 ft 380 kts 192°
2026-04-11 16:30 31.97967 -93.80162 24640 ft 361 kts 203°
2026-04-11 16:30 31.95587 -93.81182 25325 ft 370 kts 206°
2026-04-11 16:31 31.93326 -93.82837 25087 ft 401 kts 213°
2026-04-11 16:31 31.90584 -93.83162 20558 ft 477 kts 156°
2026-04-11 16:31 31.88148 -93.80385 20064 ft 475 kts 127°
2026-04-11 16:31 31.86401 -93.77281 20377 ft 447 kts 122°
2026-04-11 16:32 31.84971 -93.74019 20634 ft 430 kts 108°
2026-04-11 16:32 31.84474 -93.70674 22027 ft 410 kts 89°
2026-04-11 16:32 31.84664 -93.67341 22915 ft 412 kts 83°
2026-04-11 16:32 31.85072 -93.63902 22918 ft 440 kts 83°
2026-04-11 16:33 31.85312 -93.60244 23437 ft 448 kts 81°
2026-04-11 16:33 31.85939 -93.56677 24496 ft 444 kts 69°
2026-04-11 16:33 31.87957 -93.53936 22745 ft 481 kts 34°
2026-04-11 16:33 31.90503 -93.52226 25189 ft 351 kts 22°
2026-04-11 16:34 31.92334 -93.50683 27841 ft 319 kts 39°
2026-04-11 16:34 31.94239 -93.49328 26013 ft 306 kts 17°
2026-04-11 16:34 31.95221 -93.48476 19820 ft 0 kts 59°